This demonstration page uses our WeatherBlox Daily Observations layout. Learn more.

Left ArrowRight Arrow

Hourly Observations for January 16, 2017

Temp ( °F °C ) Dew Point ( °F °C ) Humidity (%) Winds ( mph kmh ) Pressure ( in mb ) Visibility ( mi km ) Precip ( " mm )
12:16 am 00:16 Cloudy with Light Freezing Rain 30 -1 28 -2 93 93 E 6 9 30.18 1022 8 13 0.00 0.00
12:25 am 00:25 Cloudy 30 -1 28 -2 93 93 E 5 7 30.18 1022 10 16 0.00 0.00
12:48 am 00:48 Cloudy with Light Freezing Rain 30 -1 28 -2 93 93 E 3 6 30.18 1022 5 8 0.00 0.00
12:53 am 00:53 Cloudy with Light Freezing Rain 31 -0.6 29 -1.7 92 92 ESE 3 6 30.11 1020 4 6 0.01 0.25
1:09 am 01:09 Cloudy with Light Wintry Mix 30 -1 30 -1 100 100 ENE 5 7 30.18 1022 3 5 0.00 0.00
1:25 am 01:25 Cloudy with Mist and Fog 30 -1 28 -2 93 93 ENE 6 9 30.18 1022 3 5 0.00 0.00
1:40 am 01:40 Cloudy with Mist and Fog 30 -1 28 -2 93 93 ENE 7 11 30.12 1020 3 5 0.00 0.00
1:53 am 01:53 Cloudy with Mist and Fog 31 -0.6 29 -1.7 92 92 ENE 6 9 30.09 1019 3 5 0.00 0.03
2:04 am 02:04 Cloudy with Light Wintry Mix 30 -1 28 -2 93 93 NE 8 13 30.12 1020 3 4 0.00 0.00
2:24 am 02:24 Cloudy with Mist and Fog 30 -1 28 -2 93 93 NE 8 13 30.12 1020 3 5 0.00 0.00
2:40 am 02:40 Cloudy with Mist and Fog 30 -1 28 -2 93 93 NE 8 13 30.12 1020 4 6 0.00 0.00
2:53 am 02:53 Cloudy with Mist and Fog 31 -0.6 29 -1.7 92 92 NE 9 15 30.07 1018 4 6 0.01 0.25
3:21 am 03:21 Cloudy with Mist and Fog 31 -0.6 29 -1.7 92 92 NE 10 17 30.09 1019 4 6 0.00 0.00
3:53 am 03:53 Cloudy with Light Wintry Mix 31 -0.6 30 -1.1 96 96 NE 12 19 30.05 1018 4 6 0.00 0.03
4:53 am 04:53 Cloudy with Light Wintry Mix 31 -0.6 30 -1.1 96 96 NNE 13 20 30.01 1016 3 5 0.01 0.25
5:53 am 05:53 Cloudy with Light Wintry Mix 31 -0.6 30 -1.1 96 96 NE 14 22 29.99 1016 6 10 0.00 0.03
6:46 am 06:46 Cloudy with Light Freezing Rain 32 0 30 -1 93 93 NE 18 30 30.00 1016 4 6 0.00 0.00
6:53 am 06:53 Cloudy with Light Freezing Rain 32 0 30 -1.1 92 92 NNE 17 28 29.98 1015 4 6 0.03 0.76
7:49 am 07:49 Cloudy with Light Wintry Mix 32 0 30 -1 93 93 NE 17 28 30.00 1016 5 8 0.06 1.52
7:53 am 07:53 Cloudy with Freezing Rain 32 0 30 -1.1 92 92 NNE 18 30 29.96 1015 5 8 0.06 1.52
8:53 am 08:53 Cloudy with Freezing Rain 32 0 30 -1.1 92 92 NE 15 24 29.98 1015 3 5 0.10 2.54
9:53 am 09:53 Cloudy with Freezing Rain 32 0 30 -1.1 92 92 NE 14 22 30.00 1016 3 5 0.11 2.79
10:33 am 10:33 Cloudy with Light Wintry Mix 32 0 30 -1.1 92 92 NNE 16 26 30.03 1017 4 6 0.07 1.78
10:53 am 10:53 Cloudy with Light Wintry Mix 32 0 30 -1.1 92 92 NNE 16 26 29.99 1016 4 6 0.09 2.29
11:01 am 11:01 Cloudy with Light Freezing Rain 32 0 30 -1 93 93 NNE 15 24 30.03 1017 4 6 0.00 0.00
11:53 am 11:53 Cloudy with Freezing Rain 32 0 30 -1.1 92 92 N 16 26 29.96 1015 4 6 0.06 1.52
12:07 pm 12:07 Cloudy with Light Freezing Rain 32 0 30 -1.1 92 92 N 15 24 30.00 1016 5 8 0.01 0.25
12:49 pm 12:49 Cloudy with Light Wintry Mix 32 0 30 -1 93 93 N 16 26 30.00 1016 6 10 0.03 0.76
12:53 pm 12:53 Cloudy with Light Wintry Mix 32 0 30 -1.1 92 92 N 15 24 29.95 1014 6 10 0.03 0.76
1:53 pm 13:53 Cloudy with Light Wintry Mix 32 0 30 -1.1 92 92 N 15 24 29.95 1014 5 8 0.02 0.51
2:53 pm 14:53 Cloudy with Light Wintry Mix 33 0.6 31 -0.6 92 92 N 15 24 29.95 1014 9 14 0.01 0.25
3:53 pm 15:53 Cloudy with Light Rain 33 0.6 31 -0.6 92 92 N 14 22 29.97 1015 7 11 0.00 0.03
4:53 pm 16:53 Cloudy 33 0.6 31 -0.6 92 92 N 14 22 29.99 1016 10 16 0.00 0.03
5:53 pm 17:53 Cloudy 33 0.6 31 -0.6 92 92 N 14 22 30.01 1016 8 13 0.00 0.00
6:53 pm 18:53 Cloudy with Mist and Fog 33 0.6 31 -0.6 92 92 NNW 15 24 30.04 1017 6 10 0.00 0.00
7:53 pm 19:53 Cloudy 32 0 29 -1.7 88 88 N 18 30 30.06 1018 9 14 0.00 0.00
8:01 pm 20:01 Cloudy 32 0 29 -1.7 88 88 N 18 30 30.09 1019 10 16 0.00 0.00
8:41 pm 20:41 Cloudy 33 0.6 29 -1.7 85 85 NNW 15 24 30.09 1019 10 16 0.00 0.00
8:53 pm 20:53 Cloudy 33 0.6 29 -1.7 85 85 N 17 28 30.06 1018 10 16 0.00 0.00
9:49 pm 21:49 Cloudy 34 1 28 -2 81 81 NNW 16 26 30.09 1019 10 16 0.00 0.00
9:53 pm 21:53 Cloudy 33 0.6 29 -1.7 85 85 NNW 16 26 30.06 1018 10 16 0.00 0.00
10:53 pm 22:53 Mostly Clear 32 0 27 -2.8 82 82 NNW 15 24 30.06 1018 10 16 0.00 0.00
11:53 pm 23:53 Partly Cloudy 30 -1.1 26 -3.3 85 85 NW 9 15 30.08 1019 10 16 0.00 0.00

Powered by AerisWeather